Theta_e
348 349 351 350 351 350 347 347 347 347 348 343 344 342 340 346 349 350 349 363 362 365 365 363 360 357 358 358 355 355 354 353 354 353 353 354 356 355 356 357 358 357 356
352 352 347 348 346 347 350 348 351 352 350 346 343 343 341 344 348 350 351 356 361 362 365 364 364 360 358 359 357 355 355 353 354 353 355 357 356 356 356 357 357 358 358
354 350 349 346 350 353 350 347 352 352 350 350 350 351 349 347 350 348 353 352 357 363 365 366 358 363 361 358 359 358 357 358 356 356 357 357 358 358 358 358 358 359 359
356 353 350 350 352 356 352 353 353 351 349 350 348 350 350 350 350 352 352 355 357 359 362 365 359 360 360 362 361 361 361 359 359 358 359 357 356 357 358 358 359 357 358
357 351 354 351 351 352 350 352 351 350 351 349 351 350 351 351 352 353 353 351 355 355 356 361 362 362 360 361 362 362 361 358 359 358 359 358 356 358 359 360 359 359 358
358 353 352 354 353 351 349 348 349 351 349 349 354 350 347 347 350 350 352 354 352 355 353 355 357 357 361 364 363 363 360 357 358 356 356 357 356 355 356 357 359 358 359
355 352 353 354 352 351 350 350 350 349 348 349 346 343 345 350 350 348 351 353 354 358 356 354 354 355 358 360 362 361 360 355 356 350 350 353 353 354 355 355 356 357 358
355 355 353 353 354 351 351 350 349 347 348 349 343 341 335 339 347 348 350 356 351 355 357 356 355 351 350 354 354 364 363 360 356 353 350 350 351 352 354 355 356 357 357
360 360 354 352 355 353 349 351 352 350 345 347 349 342 334 331 337 345 347 351 351 349 355 356 356 355 351 353 356 360 361 358 358 356 354 351 350 350 352 352 354 355 356
357 360 358 357 356 355 350 351 355 351 346 342 346 351 345 344 333 331 342 347 346 348 349 352 351 356 355 352 357 357 360 357 358 358 357 355 351 346 350 350 351 353 355
358 358 357 356 354 354 354 351 348 349 349 345 344 344 343 344 343 336 331 340 344 345 347 346 348 353 356 356 357 356 357 357 357 357 357 355 355 351 348 348 351 351 352
357 356 359 356 355 354 352 349 344 341 341 346 346 345 342 337 336 335 332 336 338 341 346 345 338 352 353 352 359 358 359 356 355 356 356 356 355 355 352 348 350 350 350
349 356 356 354 353 355 348 343 338 338 343 340 345 344 346 345 346 342 337 330 322 325 330 335 341 347 353 351 355 358 357 354 353 351 351 353 354 354 354 351 351 351 349
352 357 356 354 355 349 344 340 335 336 339 344 345 345 344 342 342 332 327 321 318 321 326 330 340 347 349 350 353 356 352 350 349 348 347 349 351 352 353 352 351 351 350
355 352 355 351 348 345 341 338 334 333 339 342 342 343 339 335 331 328 328 329 323 317 319 331 336 343 347 348 352 353 348 348 348 347 345 345 347 349 350 351 350 347 346
354 354 354 350 348 345 341 337 332 336 336 336 335 333 331 336 333 335 330 330 329 324 320 329 336 341 344 345 347 346 349 349 348 346 345 345 345 346 348 348 348 348 348
358 355 355 353 349 344 342 337 335 336 334 332 333 333 333 334 332 331 327 330 328 329 325 328 335 337 334 333 339 338 346 347 345 344 344 343 343 344 345 345 346 346 347
357 353 354 353 351 346 343 337 335 335 335 331 332 332 334 337 331 332 331 327 323 326 324 320 324 330 330 336 335 334 340 339 339 344 342 342 341 341 341 341 341 341 340
357 355 351 350 350 348 345 339 337 336 336 333 335 335 334 334 330 332 328 325 327 329 328 325 321 322 323 329 328 332 337 337 338 344 339 339 339 339 338 336 335 334 332
355 356 349 348 347 346 347 344 342 339 338 339 338 339 335 336 333 333 328 328 327 326 324 323 321 321 322 325 326 325 325 330 334 340 342 340 341 340 339 335 333 333 329
345 347 346 339 339 346 349 345 342 341 338 338 338 339 337 338 340 332 325 326 328 325 319 317 317 318 323 324 323 326 326 327 330 335 336 338 339 340 341 338 340 339 333
343 340 338 335 334 345 346 342 342 342 341 338 336 338 335 336 334 331 330 329 328 320 317 318 317 316 319 321 323 323 322 323 321 330 325 325 333 335 338 339 338 336 333
340 339 338 339 340 343 340 335 338 338 339 338 336 337 334 335 330 324 329 329 327 326 324 318 313 314 317 318 322 321 320 320 320 325 323 321 325 324 327 336 335 334 331
334 335 337 338 338 341 337 334 337 337 338 337 337 337 336 332 328 327 325 324 323 323 320 320 318 319 320 317 312 319 318 316 317 320 324 320 322 323 328 332 329 330 328
336 336 335 335 334 337 329 329 331 333 336 333 336 335 335 329 328 331 330 328 326 325 329 325 327 325 321 321 316 308 303 304 306 313 321 323 326 324 324 331 330 330 326
330 329 326 325 326 324 323 325 329 324 321 320 318 315 319 316 317 318 315 317 317 316 321 320 318 322 322 321 323 312 309 306 307 310 320 321 326 325 317 325 329 326 326
Wind_Speed
3 3 4 4 4 3 4 4 4 4 5 5 5 5 3 4 6 6 6 19 13 14 14 16 15 15 16 15 16 16 14 12 13 12 10 12 11 13 13 14 13 13 11
2 2 4 4 4 4 3 3 3 4 4 5 4 6 6 4 7 6 2 7 16 14 13 15 17 17 17 17 17 17 17 15 14 13 11 11 11 13 13 14 13 14 14
3 2 2 0 3 3 1 4 5 2 4 2 4 4 4 6 4 4 6 6 8 18 20 20 16 16 17 18 18 18 17 15 15 14 12 12 13 13 13 14 13 12 11
5 3 1 2 2 1 4 4 2 3 4 3 3 4 4 4 6 6 5 4 5 8 15 21 16 18 21 20 20 19 17 17 16 15 13 13 13 14 14 14 13 12 12
5 4 2 4 4 1 2 3 3 2 3 4 4 4 6 5 5 7 6 6 8 8 9 15 19 19 23 23 22 19 19 16 16 14 13 13 12 12 14 14 14 13 13
5 4 3 2 1 2 4 3 5 3 3 3 3 4 3 5 4 3 3 5 8 12 9 10 8 8 19 21 21 20 19 18 17 15 12 11 8 11 11 13 14 13 13
5 5 2 2 3 4 5 6 3 3 3 1 2 4 3 1 4 3 4 8 8 3 10 7 5 5 9 17 17 20 22 22 20 17 15 10 9 8 10 11 14 14 14
6 5 5 4 3 2 3 3 3 1 2 1 2 2 3 3 3 5 5 3 17 8 6 7 7 7 6 7 10 19 21 21 22 21 19 17 14 11 10 11 12 14 14
4 6 7 5 4 2 2 2 3 2 2 3 3 3 1 2 3 2 4 3 7 5 6 8 9 7 8 7 11 15 21 21 21 22 22 20 15 16 11 10 13 14 15
6 5 6 6 5 2 2 3 2 2 1 3 3 2 2 4 0 4 1 3 2 3 3 3 6 9 8 5 11 14 20 21 22 22 22 22 23 19 18 16 13 13 16
7 7 6 6 6 3 3 3 3 3 1 0 1 1 1 2 2 3 2 2 3 5 3 5 5 5 6 5 6 9 17 20 21 22 21 21 24 24 24 22 19 19 20
4 5 4 4 5 4 2 1 1 1 2 2 2 2 2 2 2 2 1 3 4 4 4 4 4 6 5 4 7 9 15 18 18 19 20 21 22 26 27 27 24 26 22
4 6 6 5 4 5 6 4 1 2 3 2 3 2 1 2 3 3 4 2 1 3 1 1 3 5 6 4 5 9 11 10 11 11 12 16 19 19 25 27 27 27 26
3 5 6 6 6 6 5 3 2 2 4 4 3 3 1 2 1 2 3 3 2 3 3 2 2 3 6 6 8 13 7 11 12 11 10 9 11 12 20 25 26 25 24
4 7 7 7 8 7 7 4 2 3 4 0 3 4 1 2 2 1 3 3 5 1 3 3 3 2 4 4 7 7 7 11 11 11 12 11 11 12 19 19 22 23 25
6 7 8 8 7 7 7 5 1 4 4 2 2 1 1 1 3 3 1 2 1 4 2 0 3 2 1 2 5 5 6 10 13 13 13 12 12 12 16 17 18 20 22
8 8 8 7 7 7 7 6 4 3 3 3 2 3 3 1 1 2 2 3 3 3 2 3 1 2 1 1 2 3 3 5 5 12 13 14 14 14 16 17 18 19 20
7 6 5 5 5 7 8 8 6 5 7 7 5 3 4 2 0 3 3 4 1 1 3 3 2 2 2 4 3 2 3 3 5 9 18 17 16 14 13 15 16 16 17
9 9 8 7 7 3 5 3 7 5 5 6 6 7 5 1 2 2 2 3 3 3 2 1 2 2 4 2 2 1 3 4 4 7 7 11 12 13 13 13 14 15 16
9 11 11 6 3 7 3 7 6 6 6 6 6 6 6 6 6 4 2 1 1 1 3 3 2 3 1 3 1 2 3 2 3 3 6 7 11 13 11 9 9 12 12
6 13 8 4 7 7 6 7 7 8 8 7 6 6 6 7 8 7 4 2 3 2 2 2 2 3 4 4 3 3 2 2 2 3 1 2 3 4 5 7 8 11 13
7 3 7 6 8 5 12 7 6 8 9 7 7 6 6 9 9 10 10 8 6 4 2 2 2 1 2 1 2 2 2 3 4 2 3 3 0 3 4 5 13 12 14
1 1 4 5 5 4 5 3 9 6 7 9 7 6 6 6 6 6 7 7 4 5 5 5 3 4 2 2 1 3 2 0 3 5 3 4 1 4 4 5 10 15 14
7 5 4 5 5 5 8 7 10 6 6 7 8 6 5 5 9 9 6 5 4 5 5 4 4 4 3 4 3 3 2 3 4 4 3 4 1 4 3 2 5 6 8
11 11 10 10 9 8 13 7 5 4 3 8 5 5 1 4 7 9 6 4 2 4 7 10 7 9 8 5 4 1 3 0 3 3 2 3 3 3 2 2 2 5 5
10 10 13 14 18 13 13 14 16 12 12 9 12 14 25 17 16 17 10 8 8 8 8 3 3 5 7 6 8 7 4 2 2 3 3 3 4 4 4 3 1 0 0
Wind_Direction
184 204 196 170 218 220 215 214 236 256 254 268 276 278 289 151 168 181 190 202 204 192 183 185 198 189 187 184 177 174 175 170 167 170 179 179 172 167 169 172 170 166 168
331 231 172 211 186 197 216 234 259 281 248 228 277 281 288 296 168 208 180 187 202 197 192 201 203 199 196 192 187 181 181 182 176 173 176 184 181 169 175 176 176 181 178
252 150 116 183 211 209 219 285 268 345 276 273 257 261 272 260 264 196 198 202 203 189 196 195 205 213 200 203 197 187 185 184 183 180 183 184 181 182 181 181 180 181 177
217 185 231 279 34 259 199 245 300 251 264 262 270 280 270 286 289 250 152 184 160 190 205 196 204 206 210 205 203 193 188 186 185 184 188 189 191 186 186 179 177 179 174
227 169 202 254 170 344 354 349 313 247 272 277 271 261 263 262 253 250 205 188 174 187 203 219 210 208 198 211 202 197 191 193 190 194 191 188 194 191 185 182 181 182 182
233 189 218 329 173 124 319 310 254 254 211 252 280 293 284 259 255 282 233 221 194 208 185 225 201 210 199 211 205 197 198 197 193 193 197 187 182 194 193 186 184 185 184
209 170 187 209 235 207 226 239 234 256 282 222 345 314 280 339 25 109 67 337 283 209 201 183 194 177 198 202 202 201 201 201 198 198 202 205 197 193 196 197 191 188 186
211 194 175 228 270 221 282 244 236 292 280 236 226 262 330 311 310 54 70 289 277 170 168 180 184 176 171 184 203 207 202 202 203 201 202 205 203 202 199 198 191 189 188
202 183 179 189 215 184 233 291 249 192 238 277 182 176 338 290 332 45 247 265 296 343 194 174 185 186 179 185 197 206 203 202 205 210 206 205 206 202 205 217 202 195 194
216 213 189 188 189 192 239 255 258 183 134 280 332 245 201 154 163 345 244 199 231 257 303 218 179 180 171 187 196 190 203 202 205 210 211 209 206 200 207 215 222 219 212
209 217 190 179 179 182 232 229 299 299 240 275 166 344 344 317 161 135 287 330 333 303 245 222 225 143 147 190 190 195 197 203 207 210 214 216 208 205 212 212 215 223 224
217 212 197 155 163 178 198 101 153 289 275 267 202 216 158 167 219 133 199 232 223 264 238 280 217 154 154 181 192 190 194 204 206 212 219 219 214 210 210 213 218 222 227
215 202 178 179 192 194 163 142 176 281 275 262 240 218 220 238 203 180 158 209 195 297 282 218 205 137 157 157 173 152 171 184 187 200 217 227 214 215 212 211 220 224 227
217 172 179 191 196 163 146 142 219 264 268 256 234 211 201 310 315 143 145 125 356 337 325 150 27 149 144 146 168 171 166 195 187 199 207 208 201 212 201 210 219 223 229
183 186 189 181 170 158 146 147 222 280 254 269 307 280 123 355 8 117 116 127 147 90 301 349 121 359 130 153 175 169 169 191 193 203 204 205 205 205 203 209 216 222 230
224 185 177 179 172 154 150 154 238 301 225 231 351 161 68 336 9 356 60 88 100 142 186 317 26 101 119 149 186 182 189 183 195 199 206 207 206 204 210 215 220 224 227
210 200 174 178 166 161 160 162 192 246 230 249 279 223 212 176 76 8 38 78 69 98 115 314 23 206 189 152 40 126 178 188 201 216 207 203 208 209 213 218 223 226 229
207 207 176 175 173 178 174 176 199 216 204 203 228 238 233 210 195 348 30 49 62 60 130 171 255 313 275 242 215 170 247 213 197 216 215 204 204 207 212 221 225 223 223
193 166 154 188 203 254 298 210 176 223 246 233 216 189 197 178 175 123 84 23 26 26 36 81 275 243 259 226 223 263 243 267 250 241 198 194 195 204 216 227 228 225 219
13 278 80 353 133 168 237 231 225 207 235 224 236 207 191 181 180 163 112 343 206 36 21 2 321 306 319 325 54 77 358 313 305 270 185 188 197 218 222 224 235 240 218
116 119 184 258 281 262 220 217 198 209 213 231 238 206 183 146 153 152 137 107 78 86 67 45 20 9 2 9 24 330 27 291 326 346 351 281 219 228 236 233 242 231 227
41 161 206 254 274 261 227 198 218 221 211 210 216 199 154 146 157 145 136 148 154 151 153 132 149 110 322 359 338 1 18 29 325 12 43 302 224 239 243 226 222 207 210
49 164 245 255 268 291 328 246 225 244 229 206 202 181 177 179 150 145 158 164 167 209 175 165 185 197 177 224 339 342 17 180 239 286 40 288 279 289 264 258 219 194 191
345 340 309 287 283 292 286 265 234 238 240 225 210 204 167 153 167 165 151 162 200 239 232 206 209 226 217 214 185 200 223 275 300 289 185 261 230 253 294 268 115 125 170
16 13 16 18 9 7 348 322 315 293 327 5 331 52 37 84 78 114 136 159 123 5 243 180 215 236 250 239 183 62 298 85 302 276 275 221 279 249 245 235 192 193 188
33 29 31 28 30 27 24 69 72 66 50 56 53 47 55 56 37 55 69 57 48 8 357 22 285 303 273 263 199 186 170 238 242 321 273 35 358 8 337 331 325 242 251